����,���ϕ���(m/s),���ϕ���,�ő�u�ԕ���(m/s),�ő啗��������,�C��(��),���x(%),10���Ԉړ��ώZ�J��(mm),1���Ԉړ��ώZ�J��(mm),���J��(mm),�݌v�J��(mm),����(���ώZ)(MJ/m2),����(���ώZ)(min),���n�C��(hPa),�C�ʋC��(hPa)
2023-12-25T00:00:00+09:00,0.5,�k��,1.1,��,0.8,84.4,0,0,0,0,10.69,461,1013.1,1027.8
2023-12-25T00:01:00+09:00,0.5,�k�k��,1.2,�k,0.7,84.8,0,0,0,0,0,0,1013.1,1027.8
2023-12-25T00:02:00+09:00,0.5,�k�k��,1.9,�k�k��,0.7,85.1,0,0,0,0,0,0,1013.1,1027.8
2023-12-25T00:03:00+09:00,0.6,�k,1.9,�k�k��,0.6,85.6,0,0,0,0,0,0,1013.1,1027.8
2023-12-25T00:04:00+09:00,0.7,�k,1.9,�k�k��,0.7,86,0,0,0,0,0,0,1013.1,1027.8
2023-12-25T00:05:00+09:00,0.7,�k,1.9,�k�k��,0.6,86,0,0,0,0,0,0,1013.1,1027.8
2023-12-25T00:06:00+09:00,0.7,�k,1.9,�k�k��,0.6,85.9,0,0,0,0,0,0,1013.1,1027.8
2023-12-25T00:07:00+09:00,0.7,�k,1.9,�k�k��,0.6,85.7,0,0,0,0,0,0,1013,1027.7
2023-12-25T00:08:00+09:00,0.7,�k,2,�k�k��,0.5,85.6,0,0,0,0,0,0,1013,1027.7
2023-12-25T00:09:00+09:00,0.8,�k,2,�k�k��,0.6,85.8,0,0,0,0,0,0,1013.1,1027.8
2023-12-25T00:10:00+09:00,0.8,�k�k��,2,�k�k��,0.5,85.7,0,0,0,0,0,0,1013.1,1027.8
2023-12-25T00:11:00+09:00,0.8,�k�k��,2,�k�k��,0.6,85.8,0,0,0,0,0,0,1013.1,1027.8
2023-12-25T00:12:00+09:00,0.7,�k,2,�k�k��,0.6,85.4,0,0,0,0,0,0,1013,1027.7
2023-12-25T00:13:00+09:00,0.7,�k,2,�k�k��,0.9,85.4,0,0,0,0,0,0,1013.1,1027.8
2023-12-25T00:14:00+09:00,0.7,�k,2,�k�k��,1,84.9,0,0,0,0,0,0,1013.1,1027.8
2023-12-25T00:15:00+09:00,0.6,�k,2,�k�k��,0.7,84.3,0,0,0,0,0,0,1013.1,1027.8
2023-12-25T00:16:00+09:00,0.6,�k,2,�k�k��,0.7,84.5,0,0,0,0,0,0,1013.1,1027.8
2023-12-25T00:17:00+09:00,0.6,�k,2,�k�k��,0.6,84.7,0,0,0,0,0,0,1013.1,1027.8
2023-12-25T00:18:00+09:00,0.5,�k�k��,1.8,�k,0.5,84.8,0,0,0,0,0,0,1013.1,1027.8
2023-12-25T00:19:00+09:00,0.5,�k�k��,1.6,�k,0.5,85.4,0,0,0,0,0,0,1013,1027.7
2023-12-25T00:20:00+09:00,0.4,�k�k��,1.2,�k�k��,0.7,85.7,0,0,0,0,0,0,1013,1027.7
2023-12-25T00:21:00+09:00,0.4,�k�k��,1.2,�k�k��,0.6,85.3,0,0,0,0,0,0,1013,1027.7
2023-12-25T00:22:00+09:00,0.4,�k�k��,1.2,�k�k��,0.6,85.4,0,0,0,0,0,0,1013,1027.7
2023-12-25T00:23:00+09:00,0.4,�k�k��,1.2,�k�k��,0.5,85.6,0,0,0,0,0,0,1013,1027.7
2023-12-25T00:24:00+09:00,0.4,�k�k��,1.1,�k�k��,0.5,85.7,0,0,0,0,0,0,1012.9,1027.6
2023-12-25T00:25:00+09:00,0.4,�k�k��,1.1,�k�k��,0.5,85.7,0,0,0,0,0,0,1012.9,1027.6
2023-12-25T00:26:00+09:00,0.5,�k�k��,1.1,�k�k��,0.5,85.7,0,0,0,0,0,0,1012.9,1027.6
2023-12-25T00:27:00+09:00,0.5,�k�k��,1.1,�k�k��,0.8,86.1,0,0,0,0,0,0,1012.9,1027.6
2023-12-25T00:28:00+09:00,0.5,�k�k��,1.1,�k�k��,0.8,85.5,0,0,0,0,0,0,1012.9,1027.6
2023-12-25T00:29:00+09:00,0.5,�k�k��,1.1,�k�k��,0.7,84.8,0,0,0,0,0,0,1013,1027.7
2023-12-25T00:30:00+09:00,0.4,�k�k��,1.1,�k�k��,0.7,85.1,0,0,0,0,0,0,1012.9,1027.6
2023-12-25T00:31:00+09:00,0.4,�k�k��,1,�k�k��,0.6,85,0,0,0,0,0,0,1012.9,1027.6
2023-12-25T00:32:00+09:00,0.4,�k�k��,1,�k�k��,0.6,85.2,0,0,0,0,0,0,1012.9,1027.6
2023-12-25T00:33:00+09:00,0.4,�k�k��,1,�k�k��,0.5,85.5,0,0,0,0,0,0,1012.9,1027.6
2023-12-25T00:34:00+09:00,0.4,�k�k��,1,�k�k��,0.5,85.6,0,0,0,0,0,0,1013,1027.7
2023-12-25T00:35:00+09:00,0.4,�k�k��,1,�k�k��,0.5,85.8,0,0,0,0,0,0,1012.9,1027.6
2023-12-25T00:36:00+09:00,0.4,�k�k��,1,�k�k��,0.6,85.9,0,0,0,0,0,0,1012.9,1027.6
2023-12-25T00:37:00+09:00,0.3,�k�k��,1,�k�k��,0.6,85.8,0,0,0,0,0,0,1012.9,1027.6
2023-12-25T00:38:00+09:00,0.3,�k�k��,0.9,�k��,0.6,85.6,0,0,0,0,0,0,1012.9,1027.6
2023-12-25T00:39:00+09:00,0.4,�k�k��,0.9,�k��,0.6,85.6,0,0,0,0,0,0,1012.9,1027.6
2023-12-25T00:40:00+09:00,0.4,�k�k��,0.9,�k��,0.5,85.7,0,0,0,0,0,0,1012.9,1027.6
2023-12-25T00:41:00+09:00,0.4,�k�k��,0.9,�k��,0.8,86,0,0,0,0,0,0,1012.9,1027.6
2023-12-25T00:42:00+09:00,0.5,�k��,0.9,�k��,0.7,85.6,0,0,0,0,0,0,1012.8,1027.5
2023-12-25T00:43:00+09:00,0.6,�k��,1,�k��,0.6,85,0,0,0,0,0,0,1012.9,1027.6
2023-12-25T00:44:00+09:00,0.6,�k��,1,�k��,0.9,85.5,0,0,0,0,0,0,1012.9,1027.6
2023-12-25T00:45:00+09:00,0.6,�k��,1,�k��,0.7,84.8,0,0,0,0,0,0,1012.9,1027.6
2023-12-25T00:46:00+09:00,0.5,�k�k��,1,�k��,0.7,84.7,0,0,0,0,0,0,1012.8,1027.5
2023-12-25T00:47:00+09:00,0.5,�k�k��,1,�k��,0.7,85,0,0,0,0,0,0,1012.8,1027.5
2023-12-25T00:48:00+09:00,0.5,�k�k��,1,�k��,0.7,84.7,0,0,0,0,0,0,1012.7,1027.4
2023-12-25T00:49:00+09:00,0.5,�k�k��,1,�k��,0.5,84.4,0,0,0,0,0,0,1012.8,1027.5
2023-12-25T00:50:00+09:00,0.5,�k,1,�k��,0.5,84.7,0,0,0,0,0,0,1012.7,1027.4
2023-12-25T00:51:00+09:00,0.5,�k,1.3,�k�k��,0.4,85.3,0,0,0,0,0,0,1012.7,1027.4
2023-12-25T00:52:00+09:00,0.5,�k�k��,1.3,�k�k��,0.7,85.7,0,0,0,0,0,0,1012.7,1027.4
2023-12-25T00:53:00+09:00,0.5,�k�k��,1.3,�k�k��,0.7,85.6,0,0,0,0,0,0,1012.6,1027.3
2023-12-25T00:54:00+09:00,0.5,�k�k��,1.3,�k�k��,0.6,85.2,0,0,0,0,0,0,1012.6,1027.3
2023-12-25T00:55:00+09:00,0.5,�k�k��,1.3,�k�k��,0.6,85.5,0,0,0,0,0,0,1012.6,1027.3
2023-12-25T00:56:00+09:00,0.5,�k�k��,1.3,�k�k��,0.8,86,0,0,0,0,0,0,1012.6,1027.3
2023-12-25T00:57:00+09:00,0.5,�k�k��,1.3,�k�k��,0.6,85.5,0,0,0,0,0,0,1012.6,1027.3
2023-12-25T00:58:00+09:00,0.6,�k�k��,1.3,�k�k��,0.6,85.8,0,0,0,0,0,0,1012.7,1027.4
2023-12-25T00:59:00+09:00,0.7,�k�k��,2,�k�k��,0.7,86.1,0,0,0,0,0,0,1012.6,1027.3
2023-12-25T01:00:00+09:00,0.7,�k�k��,2,�k�k��,0.7,85.9,0,0,0,0,0,0,1012.6,1027.3
2023-12-25T01:01:00+09:00,0.7,�k�k��,2,�k�k��,1.1,85.6,0,0,0,0,0,0,1012.7,1027.4
2023-12-25T01:02:00+09:00,0.7,�k�k��,2,�k�k��,0.7,84.6,0,0,0,0,0,0,1012.6,1027.3
2023-12-25T01:03:00+09:00,0.8,�k�k��,2,�k�k��,0.6,84.7,0,0,0,0,0,0,1012.6,1027.3
2023-12-25T01:04:00+09:00,0.9,�k�k��,2,�k�k��,0.7,85.1,0,0,0,0,0,0,1012.6,1027.3
2023-12-25T01:05:00+09:00,0.9,�k�k��,2,�k�k��,0.6,84.9,0,0,0,0,0,0,1012.6,1027.3
2023-12-25T01:06:00+09:00,0.9,�k�k��,2,�k�k��,0.6,84.5,0,0,0,0,0,0,1012.6,1027.3
2023-12-25T01:07:00+09:00,1,�k�k��,2,�k�k��,0.5,84.8,0,0,0,0,0,0,1012.5,1027.2
2023-12-25T01:08:00+09:00,1.1,�k�k��,2,�k�k��,0.7,85.1,0,0,0,0,0,0,1012.6,1027.3
2023-12-25T01:09:00+09:00,1.1,�k,2,�k,0.7,85.2,0,0,0,0,0,0,1012.6,1027.3
2023-12-25T01:10:00+09:00,1,�k,2,�k,0.6,85,0,0,0,0,0,0,1012.6,1027.3
2023-12-25T01:11:00+09:00,1,�k,2,�k,0.5,85.1,0,0,0,0,0,0,1012.5,1027.2
2023-12-25T01:12:00+09:00,1,�k,2,�k,0.7,85.3,0,0,0,0,0,0,1012.6,1027.3
2023-12-25T01:13:00+09:00,0.8,�k,2,�k,0.6,85.1,0,0,0,0,0,0,1012.6,1027.3
2023-12-25T01:14:00+09:00,0.7,�k,2,�k,0.5,85,0,0,0,0,0,0,1012.7,1027.4
2023-12-25T01:15:00+09:00,0.7,�k�k��,2,�k,0.4,85.3,0,0,0,0,0,0,1012.6,1027.3
2023-12-25T01:16:00+09:00,0.7,�k�k��,2,�k,0.4,85.8,0,0,0,0,0,0,1012.6,1027.3
2023-12-25T01:17:00+09:00,0.6,�k�k��,2,�k,0.4,86.2,0,0,0,0,0,0,1012.5,1027.2
2023-12-25T01:18:00+09:00,0.5,�k,2,�k,0.6,86.4,0,0,0,0,0,0,1012.5,1027.2
2023-12-25T01:19:00+09:00,0.5,�k,1.1,�k�k��,0.6,86,0,0,0,0,0,0,1012.6,1027.3
2023-12-25T01:20:00+09:00,0.5,�k,1.1,�k�k��,0.5,85.6,0,0,0,0,0,0,1012.5,1027.2
2023-12-25T01:21:00+09:00,0.5,�k,1.1,�k�k��,0.4,85.6,0,0,0,0,0,0,1012.5,1027.2
2023-12-25T01:22:00+09:00,0.4,�k,1.1,�k�k��,0.5,86,0,0,0,0,0,0,1012.4,1027.1
2023-12-25T01:23:00+09:00,0.4,�k,1.1,�k�k��,0.5,86.1,0,0,0,0,0,0,1012.5,1027.2
2023-12-25T01:24:00+09:00,0.5,�k,1.1,�k�k��,0.6,85.9,0,0,0,0,0,0,1012.5,1027.2
2023-12-25T01:25:00+09:00,0.5,�k,1.1,�k�k��,0.6,85.7,0,0,0,0,0,0,1012.5,1027.2
2023-12-25T01:26:00+09:00,0.5,�k,1.1,�k,0.4,85.3,0,0,0,0,0,0,1012.6,1027.3
2023-12-25T01:27:00+09:00,0.5,�k,1.1,�k,0.3,85.6,0,0,0,0,0,0,1012.5,1027.2
2023-12-25T01:28:00+09:00,0.4,�k,1.1,�k,0.3,86,0,0,0,0,0,0,1012.6,1027.3
2023-12-25T01:29:00+09:00,0.4,�k�k��,1.1,�k,0.3,86.1,0,0,0,0,0,0,1012.5,1027.2
2023-12-25T01:30:00+09:00,0.4,�k�k��,1.1,�k,0.2,86,0,0,0,0,0,0,1012.6,1027.4
2023-12-25T01:31:00+09:00,0.5,�k�k��,1.1,�k,0.2,86.4,0,0,0,0,0,0,1012.6,1027.4
2023-12-25T01:32:00+09:00,0.5,�k�k��,1.1,�k,0.5,87.1,0,0,0,0,0,0,1012.6,1027.3
2023-12-25T01:33:00+09:00,0.5,�k��,1.1,�k,0.4,86.6,0,0,0,0,0,0,1012.6,1027.3
2023-12-25T01:34:00+09:00,0.4,�k��,1.1,�k,0.3,86.3,0,0,0,0,0,0,1012.5,1027.2
2023-12-25T01:35:00+09:00,0.5,�k��,1.1,�k,0.2,86.2,0,0,0,0,0,0,1012.5,1027.3
2023-12-25T01:36:00+09:00,0.4,�k��,1,���쐼,0.1,86.4,0,0,0,0,0,0,1012.6,1027.4
2023-12-25T01:37:00+09:00,0.4,�k��,1,���쐼,0,86.6,0,0,0,0,0,0,1012.6,1027.4
2023-12-25T01:38:00+09:00,0.4,�k��,1,���쐼,0,87,0,0,0,0,0,0,1012.6,1027.4
2023-12-25T01:39:00+09:00,0.4,�k��,0.9,���k��,0.1,87.2,0,0,0,0,0,0,1012.5,1027.3
2023-12-25T01:40:00+09:00,0.4,�k�k��,1,���k��,0.2,87.5,0,0,0,0,0,0,1012.5,1027.3
2023-12-25T01:41:00+09:00,0.4,�k�k��,1,���k��,0.4,87.5,0,0,0,0,0,0,1012.5,1027.2
2023-12-25T01:42:00+09:00,0.4,�k�k��,1,���k��,0.2,86.9,0,0,0,0,0,0,1012.6,1027.4
2023-12-25T01:43:00+09:00,0.4,�k�k��,1,���k��,0.1,86.7,0,0,0,0,0,0,1012.5,1027.3
2023-12-25T01:44:00+09:00,0.4,�k,1.1,�k,0.2,87.2,0,0,0,0,0,0,1012.5,1027.3
2023-12-25T01:45:00+09:00,0.4,�k,1.1,�k,0.2,87.1,0,0,0,0,0,0,1012.5,1027.3
2023-12-25T01:46:00+09:00,0.4,�k,1.1,�k,0.1,87.1,0,0,0,0,0,0,1012.5,1027.3
2023-12-25T01:47:00+09:00,0.4,�k,1.1,�k,0,87.3,0,0,0,0,0,0,1012.5,1027.3
2023-12-25T01:48:00+09:00,0.4,�k�k��,1.1,�k,0,87.2,0,0,0,0,0,0,1012.5,1027.3
2023-12-25T01:49:00+09:00,0.5,�k�k��,1.1,�k,0,87.3,0,0,0,0,0,0,1012.4,1027.2
2023-12-25T01:50:00+09:00,0.5,�k,1.4,�k�k��,0,87.5,0,0,0,0,0,0,1012.5,1027.3
2023-12-25T01:51:00+09:00,0.6,�k,1.6,�k,0,87.8,0,0,0,0,0,0,1012.4,1027.2
2023-12-25T01:52:00+09:00,0.6,�k,1.6,�k,0,87.7,0,0,0,0,0,0,1012.5,1027.3
2023-12-25T01:53:00+09:00,0.6,�k,1.6,�k,0,87.7,0,0,0,0,0,0,1012.4,1027.2
2023-12-25T01:54:00+09:00,0.7,�k,1.8,�k,0,87.6,0,0,0,0,0,0,1012.5,1027.3
2023-12-25T01:55:00+09:00,0.7,�k,1.8,�k,0.1,87.7,0,0,0,0,0,0,1012.5,1027.3
2023-12-25T01:56:00+09:00,0.8,�k,1.8,�k,0.2,87.8,0,0,0,0,0,0,1012.5,1027.3
2023-12-25T01:57:00+09:00,0.9,�k,1.8,�k,0,87.5,0,0,0,0,0,0,1012.5,1027.3
2023-12-25T01:58:00+09:00,0.9,�k,1.8,�k,0,87.4,0,0,0,0,0,0,1012.5,1027.3
2023-12-25T01:59:00+09:00,0.9,�k,1.8,�k,0,87.4,0,0,0,0,0,0,1012.5,1027.3
2023-12-25T02:00:00+09:00,0.9,�k,1.8,�k,0,87.7,0,0,0,0,0,0,1012.6,1027.4
2023-12-25T02:01:00+09:00,0.8,�k,1.8,�k,0,87.7,0,0,0,0,0,0,1012.5,1027.3
2023-12-25T02:02:00+09:00,0.8,�k,1.8,�k,0,87.8,0,0,0,0,0,0,1012.6,1027.4
2023-12-25T02:03:00+09:00,0.8,�k,1.8,�k,-0.1,87.6,0,0,0,0,0,0,1012.5,1027.3
2023-12-25T02:04:00+09:00,0.7,�k,1.8,�k�k��,-0.2,87.5,0,0,0,0,0,0,1012.6,1027.4
2023-12-25T02:05:00+09:00,0.6,�k,1.8,�k�k��,-0.3,87.7,0,0,0,0,0,0,1012.5,1027.3
2023-12-25T02:06:00+09:00,0.5,�k�k��,1.6,�k,-0.2,88.3,0,0,0,0,0,0,1012.5,1027.3
2023-12-25T02:07:00+09:00,0.5,�k�k��,1.6,�k,-0.1,89,0,0,0,0,0,0,1012.5,1027.3
2023-12-25T02:08:00+09:00,0.5,�k�k��,1.6,�k,-0.2,88.3,0,0,0,0,0,0,1012.5,1027.3
2023-12-25T02:09:00+09:00,0.5,�k�k��,1.2,�k,-0.1,88.5,0,0,0,0,0,0,1012.4,1027.2
2023-12-25T02:10:00+09:00,0.5,�k�k��,1.1,�k,-0.1,88.3,0,0,0,0,0,0,1012.5,1027.3
2023-12-25T02:11:00+09:00,0.5,�k,1.1,�k,-0.1,88.2,0,0,0,0,0,0,1012.5,1027.3
2023-12-25T02:12:00+09:00,0.5,�k,1.1,�k,-0.2,88,0,0,0,0,0,0,1012.5,1027.3
2023-12-25T02:13:00+09:00,0.5,�k,1.1,�k,-0.1,88.3,0,0,0,0,0,0,1012.5,1027.3
2023-12-25T02:14:00+09:00,0.6,�k,1.5,�k,-0.1,88.2,0,0,0,0,0,0,1012.4,1027.2
2023-12-25T02:15:00+09:00,0.7,�k,1.5,�k,-0.1,88.2,0,0,0,0,0,0,1012.4,1027.2
2023-12-25T02:16:00+09:00,0.7,�k,1.5,�k,-0.2,88.1,0,0,0,0,0,0,1012.4,1027.2
2023-12-25T02:17:00+09:00,0.8,�k,1.5,�k,-0.2,88,0,0,0,0,0,0,1012.4,1027.2
2023-12-25T02:18:00+09:00,0.8,�k�k��,2.1,�k,-0.2,88.3,0,0,0,0,0,0,1012.4,1027.2
2023-12-25T02:19:00+09:00,0.9,�k�k��,2.1,�k,-0.3,88.4,0,0,0,0,0,0,1012.4,1027.2
2023-12-25T02:20:00+09:00,0.9,�k�k��,2.1,�k,-0.2,88.6,0,0,0,0,0,0,1012.3,1027.1
2023-12-25T02:21:00+09:00,0.9,�k�k��,2.1,�k,-0.1,88.6,0,0,0,0,0,0,1012.3,1027.1
2023-12-25T02:22:00+09:00,0.9,�k�k��,2.1,�k,-0.1,88.5,0,0,0,0,0,0,1012.3,1027.1
2023-12-25T02:23:00+09:00,0.9,�k,2.1,�k,-0.2,88.2,0,0,0,0,0,0,1012.3,1027.1
2023-12-25T02:24:00+09:00,0.8,�k,2.1,�k,-0.2,88,0,0,0,0,0,0,1012.3,1027.1
2023-12-25T02:25:00+09:00,0.9,�k,2.1,�k,-0.2,87.9,0,0,0,0,0,0,1012.2,1027
2023-12-25T02:26:00+09:00,0.9,�k,2.1,�k,-0.2,87.9,0,0,0,0,0,0,1012.3,1027.1
2023-12-25T02:27:00+09:00,0.9,�k�k��,2.1,�k,-0.2,87.8,0,0,0,0,0,0,1012.3,1027.1
2023-12-25T02:28:00+09:00,0.8,�k�k��,1.8,�k,-0.2,88.1,0,0,0,0,0,0,1012.3,1027.1
2023-12-25T02:29:00+09:00,0.8,�k�k��,1.8,�k,-0.2,87.9,0,0,0,0,0,0,1012.3,1027.1
2023-12-25T02:30:00+09:00,0.8,�k��,1.6,�k,-0.4,87.6,0,0,0,0,0,0,1012.3,1027.1
2023-12-25T02:31:00+09:00,0.8,�k��,1.4,�k�k��,-0.4,88.1,0,0,0,0,0,0,1012.3,1027.1
2023-12-25T02:32:00+09:00,0.8,�k��,1.4,�k�k��,-0.4,88.6,0,0,0,0,0,0,1012.3,1027.1
2023-12-25T02:33:00+09:00,0.8,�k��,1.4,�k�k��,-0.4,88.8,0,0,0,0,0,0,1012.3,1027.1
2023-12-25T02:34:00+09:00,0.7,���k��,1.4,�k�k��,-0.4,89,0,0,0,0,0,0,1012.3,1027.1
2023-12-25T02:35:00+09:00,0.6,���k��,1.4,�k�k��,-0.4,89,0,0,0,0,0,0,1012.4,1027.2
2023-12-25T02:36:00+09:00,0.6,���k��,1.4,�k�k��,-0.4,89.1,0,0,0,0,0,0,1012.3,1027.1
2023-12-25T02:37:00+09:00,0.6,���k��,1.4,�k�k��,-0.5,89,0,0,0,0,0,0,1012.3,1027.1
2023-12-25T02:38:00+09:00,0.6,���k��,1.3,���k��,-0.2,89.6,0,0,0,0,0,0,1012.3,1027.1
2023-12-25T02:39:00+09:00,0.6,���k��,1.6,��,-0.1,89.2,0,0,0,0,0,0,1012.3,1027.1
2023-12-25T02:40:00+09:00,0.7,���k��,1.6,��,0,88.9,0,0,0,0,0,0,1012.4,1027.2
2023-12-25T02:41:00+09:00,0.7,���k��,1.8,��,0,88.2,0,0,0,0,0,0,1012.4,1027.2
2023-12-25T02:42:00+09:00,0.7,���k��,1.8,��,-0.2,87.8,0,0,0,0,0,0,1012.4,1027.2
2023-12-25T02:43:00+09:00,0.8,���k��,1.8,��,-0.3,87.9,0,0,0,0,0,0,1012.3,1027.1
2023-12-25T02:44:00+09:00,0.8,���k��,1.8,��,-0.2,88.4,0,0,0,0,0,0,1012.4,1027.2
2023-12-25T02:45:00+09:00,0.8,���k��,1.8,��,-0.2,88.4,0,0,0,0,0,0,1012.4,1027.2
2023-12-25T02:46:00+09:00,0.8,���k��,1.8,��,-0.2,88.3,0,0,0,0,0,0,1012.4,1027.2
2023-12-25T02:47:00+09:00,0.8,��,1.8,��,-0.3,88,0,0,0,0,0,0,1012.4,1027.2
2023-12-25T02:48:00+09:00,0.7,��,1.8,��,-0.5,87.9,0,0,0,0,0,0,1012.3,1027.1
2023-12-25T02:49:00+09:00,0.7,��,1.8,��,-0.3,88.4,0,0,0,0,0,0,1012.2,1027
2023-12-25T02:50:00+09:00,0.6,���k��,1.8,��,-0.4,88.5,0,0,0,0,0,0,1012.3,1027.1
2023-12-25T02:51:00+09:00,0.4,���k��,1.1,��,-0.4,88.5,0,0,0,0,0,0,1012.3,1027.1
2023-12-25T02:52:00+09:00,0.4,���k��,1.2,�k��,-0.3,89,0,0,0,0,0,0,1012.3,1027.1
2023-12-25T02:53:00+09:00,0.5,�k��,1.2,�k��,-0.1,89.2,0,0,0,0,0,0,1012.3,1027.1
2023-12-25T02:54:00+09:00,0.5,�k�k��,1.2,�k��,-0.1,89.1,0,0,0,0,0,0,1012.3,1027.1
2023-12-25T02:55:00+09:00,0.5,�k,1.2,�k��,-0.2,88.7,0,0,0,0,0,0,1012.2,1027
2023-12-25T02:56:00+09:00,0.6,�k�k��,1.2,�k��,0,88.7,0,0,0,0,0,0,1012.2,1027
2023-12-25T02:57:00+09:00,0.5,�k�k��,1.2,�k��,-0.1,88.2,0,0,0,0,0,0,1012.2,1027
2023-12-25T02:58:00+09:00,0.5,�k��,1.2,�k��,-0.3,87.8,0,0,0,0,0,0,1012.2,1027
2023-12-25T02:59:00+09:00,0.5,�k��,1.2,�k��,-0.4,88.1,0,0,0,0,0,0,1012.2,1027
2023-12-25T03:00:00+09:00,0.5,���k��,1.2,�k��,-0.5,88.6,0,0,0,0,0,0,1012.2,1027
2023-12-25T03:01:00+09:00,0.6,���k��,1.2,�k��,-0.6,88.9,0,0,0,0,0,0,1012.1,1026.9
2023-12-25T03:02:00+09:00,0.6,���k��,1.3,�k��,-0.6,89.3,0,0,0,0,0,0,1012.1,1026.9
2023-12-25T03:03:00+09:00,0.6,���k��,1.3,�k��,-0.7,89.8,0,0,0,0,0,0,1012,1026.8
2023-12-25T03:04:00+09:00,0.6,���k��,1.3,�k��,-0.7,90,0,0,0,0,0,0,1012.2,1027
2023-12-25T03:05:00+09:00,0.6,���k��,1.3,�k��,-0.7,90.3,0,0,0,0,0,0,1012.1,1026.9
2023-12-25T03:06:00+09:00,0.6,���k��,1.3,�k��,-0.4,90.8,0,0,0,0,0,0,1012.1,1026.9
2023-12-25T03:07:00+09:00,0.6,���k��,1.3,�k��,-0.2,90.7,0,0,0,0,0,0,1012.1,1026.9
2023-12-25T03:08:00+09:00,0.6,���k��,1.3,�k��,-0.3,89.9,0,0,0,0,0,0,1012.1,1026.9
2023-12-25T03:09:00+09:00,0.6,�k��,1.3,�k��,-0.5,89.1,0,0,0,0,0,0,1012.1,1026.9
2023-12-25T03:10:00+09:00,0.6,�k��,1.3,�k��,-0.5,89,0,0,0,0,0,0,1012.2,1027
2023-12-25T03:11:00+09:00,0.6,�k�k��,1.3,�k��,-0.6,89.2,0,0,0,0,0,0,1012.2,1027
2023-12-25T03:12:00+09:00,0.6,�k,1.3,�k��,-0.4,89.4,0,0,0,0,0,0,1012.1,1026.9
2023-12-25T03:13:00+09:00,0.6,�k,1.3,�k��,-0.5,88.8,0,0,0,0,0,0,1012.1,1026.9
2023-12-25T03:14:00+09:00,0.7,�k�k��,1.3,�k��,-0.4,88.9,0,0,0,0,0,0,1012.2,1027
2023-12-25T03:15:00+09:00,0.6,�k�k��,1.3,�k��,-0.5,88.4,0,0,0,0,0,0,1012.1,1026.9
2023-12-25T03:16:00+09:00,0.6,�k��,1.3,�k��,-0.6,88.5,0,0,0,0,0,0,1012.1,1026.9
2023-12-25T03:17:00+09:00,0.6,�k��,1.3,�k��,-0.7,88.3,0,0,0,0,0,0,1012.2,1027
2023-12-25T03:18:00+09:00,0.6,�k��,1.3,�k��,-0.7,88.7,0,0,0,0,0,0,1012.1,1026.9
2023-12-25T03:19:00+09:00,0.6,�k�k��,1.3,�k��,-0.7,89,0,0,0,0,0,0,1012.1,1026.9
2023-12-25T03:20:00+09:00,0.6,�k�k��,1.3,�k��,-0.7,89.3,0,0,0,0,0,0,1012.1,1026.9
2023-12-25T03:21:00+09:00,0.6,�k�k��,1.3,�k��,-0.6,89.6,0,0,0,0,0,0,1012.1,1026.9
2023-12-25T03:22:00+09:00,0.6,�k�k��,1.3,�k��,-0.6,89.7,0,0,0,0,0,0,1012.1,1026.9
2023-12-25T03:23:00+09:00,0.6,�k�k��,1.3,�k��,-0.6,89.5,0,0,0,0,0,0,1012.2,1027
2023-12-25T03:24:00+09:00,0.5,�k�k��,1.3,�k,-0.7,89,0,0,0,0,0,0,1012.1,1026.9
2023-12-25T03:25:00+09:00,0.6,�k�k��,2.1,�k,-0.7,89.1,0,0,0,0,0,0,1012.1,1026.9
2023-12-25T03:26:00+09:00,0.6,�k�k��,2.1,�k,-0.8,88.9,0,0,0,0,0,0,1012.1,1026.9
2023-12-25T03:27:00+09:00,0.7,�k,2.4,�k�k��,-0.7,89.1,0,0,0,0,0,0,1012.1,1026.9
2023-12-25T03:28:00+09:00,0.8,�k,2.4,�k�k��,-0.7,89.3,0,0,0,0,0,0,1012.1,1026.9
2023-12-25T03:29:00+09:00,0.8,�k,2.4,�k�k��,-0.8,89.1,0,0,0,0,0,0,1012.1,1026.9
2023-12-25T03:30:00+09:00,0.9,�k,2.4,�k�k��,-0.7,89.4,0,0,0,0,0,0,1012.1,1026.9
2023-12-25T03:31:00+09:00,1,�k,2.4,�k�k��,-0.8,89.5,0,0,0,0,0,0,1012.1,1026.9
2023-12-25T03:32:00+09:00,1,�k,2.4,�k�k��,-0.7,89.6,0,0,0,0,0,0,1012.2,1027
2023-12-25T03:33:00+09:00,1,�k,2.4,�k�k��,-0.8,89.6,0,0,0,0,0,0,1012.2,1027
2023-12-25T03:34:00+09:00,1.1,�k,2.4,�k�k��,-0.8,89.5,0,0,0,0,0,0,1012.2,1027
2023-12-25T03:35:00+09:00,1.2,�k�k��,2.7,�k�k��,-0.9,89.4,0,0,0,0,0,0,1012.1,1026.9
2023-12-25T03:36:00+09:00,1.3,�k�k��,2.7,�k�k��,-1,89.6,0,0,0,0,0,0,1012.1,1026.9
2023-12-25T03:37:00+09:00,1.4,�k�k��,2.7,�k�k��,-1,90,0,0,0,0,0,0,1012.1,1026.9
2023-12-25T03:38:00+09:00,1.5,�k�k��,2.7,�k�k��,-1,90.1,0,0,0,0,0,0,1012.1,1026.9
2023-12-25T03:39:00+09:00,1.5,�k�k��,2.7,�k�k��,-1,90.1,0,0,0,0,0,0,1012.1,1026.9
2023-12-25T03:40:00+09:00,1.6,�k�k��,2.7,�k�k��,-0.8,90.5,0,0,0,0,0,0,1012.1,1026.9
2023-12-25T03:41:00+09:00,1.6,�k�k��,2.7,�k�k��,-1,90.2,0,0,0,0,0,0,1012.1,1026.9
2023-12-25T03:42:00+09:00,1.6,�k�k��,2.7,�k�k��,-0.9,90.3,0,0,0,0,0,0,1012,1026.8
2023-12-25T03:43:00+09:00,1.7,�k�k��,2.7,�k�k��,-1,90.4,0,0,0,0,0,0,1012,1026.8
2023-12-25T03:44:00+09:00,1.7,�k�k��,2.7,�k�k��,-1,90.4,0,0,0,0,0,0,1012,1026.8
2023-12-25T03:45:00+09:00,1.7,�k�k��,2.8,�k,-1,90.6,0,0,0,0,0,0,1012,1026.8
2023-12-25T03:46:00+09:00,1.7,�k�k��,2.8,�k,-1,90.5,0,0,0,0,0,0,1011.9,1026.7
2023-12-25T03:47:00+09:00,1.7,�k�k��,2.8,�k,-0.9,90.7,0,0,0,0,0,0,1011.9,1026.7
2023-12-25T03:48:00+09:00,1.6,�k�k��,2.8,�k,-0.9,90.5,0,0,0,0,0,0,1011.9,1026.7
2023-12-25T03:49:00+09:00,1.5,�k�k��,2.8,�k,-0.9,90.2,0,0,0,0,0,0,1012,1026.8
2023-12-25T03:50:00+09:00,1.4,�k,2.8,�k,-0.9,90.1,0,0,0,0,0,0,1011.9,1026.7
2023-12-25T03:51:00+09:00,1.3,�k,2.8,�k,-0.9,90.1,0,0,0,0,0,0,1012,1026.8
2023-12-25T03:52:00+09:00,1.3,�k,2.8,�k,-1,89.5,0,0,0,0,0,0,1011.9,1026.7
2023-12-25T03:53:00+09:00,1.2,�k,2.8,�k,-0.9,89.7,0,0,0,0,0,0,1011.9,1026.7
2023-12-25T03:54:00+09:00,1.2,�k,2.8,�k,-0.9,89.5,0,0,0,0,0,0,1011.9,1026.7
2023-12-25T03:55:00+09:00,1.1,�k�k��,2.6,�k�k��,-0.9,89.5,0,0,0,0,0,0,1011.9,1026.7
2023-12-25T03:56:00+09:00,1,�k�k��,2.2,�k,-1,89.4,0,0,0,0,0,0,1011.9,1026.7
2023-12-25T03:57:00+09:00,1,�k�k��,1.8,�k,-1.1,89.2,0,0,0,0,0,0,1012,1026.8
2023-12-25T03:58:00+09:00,0.9,�k�k��,1.7,�k��,-1.1,89.3,0,0,0,0,0,0,1011.9,1026.7
2023-12-25T03:59:00+09:00,1,�k�k��,2.1,�k,-0.8,90.2,0,0,0,0,0,0,1011.9,1026.7
2023-12-25T04:00:00+09:00,1,�k�k��,2.1,�k,-0.9,89.7,0,0,0,0,0,0,1011.8,1026.6
2023-12-25T04:01:00+09:00,1,�k�k��,2.1,�k,-0.9,89.6,0,0,0,0,0,0,1011.8,1026.6
2023-12-25T04:02:00+09:00,1,�k,2.1,�k,-0.9,89.9,0,0,0,0,0,0,1011.8,1026.6
2023-12-25T04:03:00+09:00,1,�k,2.1,�k,-0.9,89.8,0,0,0,0,0,0,1011.8,1026.6
2023-12-25T04:04:00+09:00,0.9,�k,2.1,�k,-0.9,89.7,0,0,0,0,0,0,1011.9,1026.7
2023-12-25T04:05:00+09:00,0.9,�k,2.1,�k,-1,89.6,0,0,0,0,0,0,1011.9,1026.7
2023-12-25T04:06:00+09:00,0.8,�k,2.1,�k,-1,89.7,0,0,0,0,0,0,1011.9,1026.7
2023-12-25T04:07:00+09:00,0.7,�k,2.1,�k,-1,90,0,0,0,0,0,0,1011.9,1026.7
2023-12-25T04:08:00+09:00,0.7,�k,2.1,�k,-1,90,0,0,0,0,0,0,1011.9,1026.7
2023-12-25T04:09:00+09:00,0.7,�k,2.1,�k�k��,-1,90,0,0,0,0,0,0,1011.9,1026.7
2023-12-25T04:10:00+09:00,0.6,�k,1.6,�k�k��,-0.9,90.1,0,0,0,0,0,0,1011.9,1026.7
2023-12-25T04:11:00+09:00,0.6,�k�k��,1.3,�k,-0.9,90,0,0,0,0,0,0,1011.9,1026.7
2023-12-25T04:12:00+09:00,0.6,�k�k��,1.3,�k,-0.9,90.1,0,0,0,0,0,0,1011.8,1026.6
2023-12-25T04:13:00+09:00,0.6,�k�k��,1.2,�k��,-0.8,89.8,0,0,0,0,0,0,1011.9,1026.7
2023-12-25T04:14:00+09:00,0.6,�k�k��,1.2,�k��,-0.9,89.7,0,0,0,0,0,0,1011.9,1026.7
2023-12-25T04:15:00+09:00,0.6,�k�k��,1.2,�k��,-1,89.3,0,0,0,0,0,0,1011.9,1026.7
2023-12-25T04:16:00+09:00,0.6,�k�k��,1.2,�k��,-1.1,89.5,0,0,0,0,0,0,1011.9,1026.7
2023-12-25T04:17:00+09:00,0.6,�k�k��,1.2,�k��,-1.1,89.6,0,0,0,0,0,0,1011.9,1026.7
2023-12-25T04:18:00+09:00,0.5,�k�k��,1.2,�k��,-1.1,89.8,0,0,0,0,0,0,1011.9,1026.7
2023-12-25T04:19:00+09:00,0.5,�k�k��,1.2,�k��,-1.1,90.1,0,0,0,0,0,0,1011.9,1026.7
2023-12-25T04:20:00+09:00,0.5,�k�k��,1.2,�k��,-1.1,90.4,0,0,0,0,0,0,1012,1026.8
2023-12-25T04:21:00+09:00,0.4,�k�k��,0.9,�k,-1.1,90.3,0,0,0,0,0,0,1011.9,1026.7
2023-12-25T04:22:00+09:00,0.4,�k�k��,0.9,�k,-1,90.7,0,0,0,0,0,0,1011.9,1026.7
2023-12-25T04:23:00+09:00,0.3,�k�k��,0.8,���k��,-0.9,90.5,0,0,0,0,0,0,1011.9,1026.7
2023-12-25T04:24:00+09:00,0.3,�k�k��,0.8,���k��,-1,90.2,0,0,0,0,0,0,1011.9,1026.7
2023-12-25T04:25:00+09:00,0.2,�É�,0.8,���k��,-0.9,90.2,0,0,0,0,0,0,1011.9,1026.7
2023-12-25T04:26:00+09:00,0.2,�É�,0.8,���k��,-1,89.9,0,0,0,0,0,0,1011.9,1026.7
2023-12-25T04:27:00+09:00,0.2,�É�,0.8,���k��,-1,90,0,0,0,0,0,0,1011.9,1026.7
2023-12-25T04:28:00+09:00,0.3,���k��,0.8,���k��,-1.1,89.9,0,0,0,0,0,0,1011.9,1026.7
2023-12-25T04:29:00+09:00,0.2,�É�,0.8,���k��,-0.7,90.8,0,0,0,0,0,0,1011.9,1026.7
2023-12-25T04:30:00+09:00,0.2,�É�,0.8,���k��,-1.1,89.7,0,0,0,0,0,0,1011.9,1026.7
2023-12-25T04:31:00+09:00,0.2,�É�,0.8,���k��,-1.2,89.4,0,0,0,0,0,0,1011.9,1026.7
2023-12-25T04:32:00+09:00,0.2,�É�,0.8,���k��,-1.1,90.2,0,0,0,0,0,0,1012,1026.8
2023-12-25T04:33:00+09:00,0.1,�É�,0.8,���쐼,-0.9,90.6,0,0,0,0,0,0,1012,1026.8
2023-12-25T04:34:00+09:00,0.1,�É�,0.8,���쐼,-0.9,90.6,0,0,0,0,0,0,1012,1026.8
2023-12-25T04:35:00+09:00,0.1,�É�,0.8,���쐼,-1.1,90.2,0,0,0,0,0,0,1012,1026.8
2023-12-25T04:36:00+09:00,0.1,�É�,0.8,���쐼,-1.1,90.3,0,0,0,0,0,0,1012,1026.8
2023-12-25T04:37:00+09:00,0.1,�É�,0.8,���쐼,-1.1,90.6,0,0,0,0,0,0,1012,1026.8
2023-12-25T04:38:00+09:00,0.1,�É�,0.6,��쓌,-1.2,90.8,0,0,0,0,0,0,1012,1026.8
2023-12-25T04:39:00+09:00,0.1,�É�,0.6,��쓌,-1.3,90.9,0,0,0,0,0,0,1011.9,1026.7
2023-12-25T04:40:00+09:00,0.1,�É�,0.6,��쓌,-1.3,91.3,0,0,0,0,0,0,1011.9,1026.7
2023-12-25T04:41:00+09:00,0.2,�É�,0.8,��,-1.3,91.7,0,0,0,0,0,0,1011.9,1026.7
2023-12-25T04:42:00+09:00,0.2,�É�,0.8,��,-1.2,91.9,0,0,0,0,0,0,1012,1026.8
2023-12-25T04:43:00+09:00,0.2,�É�,0.8,��,-1.2,92.1,0,0,0,0,0,0,1012,1026.8
2023-12-25T04:44:00+09:00,0.2,�É�,0.8,��,-1.1,92.2,0,0,0,0,0,0,1011.9,1026.7
2023-12-25T04:45:00+09:00,0.2,�É�,0.8,��,-1.1,92.2,0,0,0,0,0,0,1011.9,1026.7
2023-12-25T04:46:00+09:00,0.3,��,0.8,��,-1.1,92,0,0,0,0,0,0,1011.9,1026.7
2023-12-25T04:47:00+09:00,0.3,���k��,0.8,��,-1,92.2,0,0,0,0,0,0,1011.9,1026.7
2023-12-25T04:48:00+09:00,0.3,���k��,0.8,��,-1,91.6,0,0,0,0,0,0,1011.9,1026.7
2023-12-25T04:49:00+09:00,0.3,�k��,0.8,��,-1,91.3,0,0,0,0,0,0,1012,1026.8
2023-12-25T04:50:00+09:00,0.3,�k��,0.8,��,-1.2,90.7,0,0,0,0,0,0,1011.9,1026.7
2023-12-25T04:51:00+09:00,0.2,�É�,0.6,�k��,-1.3,90.5,0,0,0,0,0,0,1011.9,1026.7
2023-12-25T04:52:00+09:00,0.2,�É�,0.6,�k��,-1.3,90.6,0,0,0,0,0,0,1011.9,1026.7
2023-12-25T04:53:00+09:00,0.2,�É�,0.6,�k��,-1.3,91,0,0,0,0,0,0,1011.9,1026.7
2023-12-25T04:54:00+09:00,0.2,�É�,0.6,�k��,-1.2,91.4,0,0,0,0,0,0,1011.9,1026.7
2023-12-25T04:55:00+09:00,0.2,�É�,0.6,�k��,-1.1,91.4,0,0,0,0,0,0,1011.9,1026.7
2023-12-25T04:56:00+09:00,0.2,�É�,0.7,�k��,-1.1,91.5,0,0,0,0,0,0,1011.8,1026.6
2023-12-25T04:57:00+09:00,0.2,�É�,0.7,�k��,-1,91.2,0,0,0,0,0,0,1011.8,1026.6
2023-12-25T04:58:00+09:00,0.2,�É�,0.7,�k��,-1.1,90.9,0,0,0,0,0,0,1011.8,1026.6
2023-12-25T04:59:00+09:00,0.2,�É�,0.7,�k��,-1,91.1,0,0,0,0,0,0,1011.8,1026.6
2023-12-25T05:00:00+09:00,0.1,�É�,0.7,�k��,-1,91,0,0,0,0,0,0,1011.9,1026.7
2023-12-25T05:01:00+09:00,0.2,�É�,0.7,�k��,-1.1,90.6,0,0,0,0,0,0,1011.8,1026.6
2023-12-25T05:02:00+09:00,0.2,�É�,0.7,�k��,-1.1,90.5,0,0,0,0,0,0,1011.8,1026.6